TimeEET,TemperatureF,Dew PointF,Humidity,Sea Level PressureIn,VisibilityMPH,Wind Direction,Wind SpeedMPH,Gust SpeedMPH,PrecipitationIn,Events,Conditions,WindDirDegrees,DateUTC
12:20 AM,69.8,57.2,64,29.80,6.2,SW,13.8,-,N/A,,Mostly Cloudy,220,2012-10-27 21:20:00
12:50 AM,69.8,55.4,60,29.80,6.2,SSW,18.4,-,N/A,,Mostly Cloudy,210,2012-10-27 21:50:00
1:20 AM,69.8,55.4,60,29.80,-9999.0,SSW,17.3,-,N/A,,Clear,210,2012-10-27 22:20:00
1:50 AM,69.8,55.4,60,29.80,6.2,SSW,18.4,-,N/A,,Mostly Cloudy,210,2012-10-27 22:50:00
2:20 AM,69.8,55.4,60,29.80,6.2,SSW,19.6,-,N/A,,Mostly Cloudy,200,2012-10-27 23:20:00
2:50 AM,69.8,55.4,60,29.80,6.2,SSW,18.4,-,N/A,,Mostly Cloudy,200,2012-10-27 23:50:00
3:00 AM,70,55,50,29.80,6,SSW,18.4,,,,Scattered Clouds,200,2012-10-28 00:00:00
3:20 AM,69.8,55.4,60,29.80,6.2,SSW,16.1,-,N/A,,Mostly Cloudy,210,2012-10-28 00:20:00
3:50 AM,69.8,55.4,60,29.80,6.2,SSW,13.8,-,N/A,,Mostly Cloudy,210,2012-10-28 00:50:00
3:20 AM,69.8,55.4,60,29.77,6.2,SSW,17.3,-,N/A,,Mostly Cloudy,200,2012-10-28 01:20:00
3:50 AM,69.8,57.2,64,29.77,6.2,South,12.7,-,N/A,,Mostly Cloudy,190,2012-10-28 01:50:00
4:20 AM,69.8,57.2,64,29.77,6.2,SSW,13.8,-,N/A,,Mostly Cloudy,200,2012-10-28 02:20:00
4:50 AM,69.8,57.2,64,29.77,6.2,South,11.5,-,N/A,,Mostly Cloudy,180,2012-10-28 02:50:00
5:20 AM,69.8,55.4,60,29.77,6.2,South,11.5,-,N/A,,Mostly Cloudy,180,2012-10-28 03:20:00
5:50 AM,69.8,55.4,60,29.77,6.2,SSW,15.0,-,N/A,,Mostly Cloudy,200,2012-10-28 03:50:00
6:20 AM,69.8,53.6,56,29.77,6.2,SSW,19.6,-,N/A,,Mostly Cloudy,200,2012-10-28 04:20:00
6:50 AM,69.8,55.4,60,29.80,6.2,SSW,17.3,-,N/A,,Mostly Cloudy,210,2012-10-28 04:50:00
7:20 AM,69.8,53.6,56,29.80,6.2,SSW,17.3,-,N/A,,Mostly Cloudy,210,2012-10-28 05:20:00
7:50 AM,69.8,55.4,60,29.80,6.2,SSW,18.4,-,N/A,,Mostly Cloudy,200,2012-10-28 05:50:00
8:00 AM,71,54,45,29.80,6,SSW,18.4,,,,Scattered Clouds,200,2012-10-28 06:00:00
8:20 AM,71.6,55.4,57,29.80,6.2,SSW,16.1,-,N/A,,Mostly Cloudy,210,2012-10-28 06:20:00
8:50 AM,71.6,53.6,53,29.83,6.2,SSW,13.8,-,N/A,,Mostly Cloudy,210,2012-10-28 06:50:00
9:20 AM,71.6,55.4,57,29.83,6.2,SSW,11.5,-,N/A,,Mostly Cloudy,210,2012-10-28 07:20:00
9:50 AM,73.4,55.4,53,29.83,6.2,SSW,13.8,-,N/A,,Mostly Cloudy,210,2012-10-28 07:50:00
10:20 AM,75.2,53.6,47,29.83,6.2,SSW,18.4,-,N/A,,Scattered Clouds,200,2012-10-28 08:20:00
10:50 AM,77.0,53.6,44,29.80,6.2,SSW,19.6,-,N/A,,Scattered Clouds,200,2012-10-28 08:50:00
11:20 AM,75.2,53.6,47,29.80,6.2,South,18.4,-,N/A,,Scattered Clouds,190,2012-10-28 09:20:00
11:50 AM,77.0,53.6,44,29.80,6.2,SSW,15.0,-,N/A,,Scattered Clouds,200,2012-10-28 09:50:00
12:20 PM,75.2,55.4,50,29.80,6.2,SSW,11.5,-,N/A,,Scattered Clouds,200,2012-10-28 10:20:00
12:50 PM,73.4,57.2,57,29.80,6.2,SW,8.1,-,N/A,,Scattered Clouds,230,2012-10-28 10:50:00
1:20 PM,73.4,57.2,57,29.80,6.2,SW,10.4,-,N/A,,Scattered Clouds,220,2012-10-28 11:20:00
1:50 PM,73.4,57.2,57,29.80,6.2,SW,10.4,-,N/A,,Mostly Cloudy,230,2012-10-28 11:50:00
2:00 PM,74,56,43,29.82,6,SW,10.4,,,,Partly Cloudy,230,2012-10-28 12:00:00
2:20 PM,75.2,53.6,47,29.80,6.2,SSW,10.4,-,N/A,,Mostly Cloudy,210,2012-10-28 12:20:00
2:50 PM,75.2,55.4,50,29.80,6.2,SW,11.5,-,N/A,,Mostly Cloudy,220,2012-10-28 12:50:00
3:20 PM,75.2,53.6,47,29.80,6.2,SW,12.7,-,N/A,,Mostly Cloudy,220,2012-10-28 13:20:00
3:50 PM,75.2,55.4,50,29.80,6.2,SW,9.2,-,N/A,,Mostly Cloudy,220,2012-10-28 13:50:00
4:20 PM,75.2,55.4,50,29.80,6.2,West,6.9,-,N/A,,Mostly Cloudy,260,2012-10-28 14:20:00
4:50 PM,73.4,57.2,57,29.80,6.2,WSW,5.8,-,N/A,,Mostly Cloudy,240,2012-10-28 14:50:00
5:20 PM,73.4,55.4,53,29.80,6.2,SSW,8.1,-,N/A,,Mostly Cloudy,210,2012-10-28 15:20:00
5:50 PM,73.4,57.2,57,29.83,6.2,SW,5.8,-,N/A,,Mostly Cloudy,220,2012-10-28 15:50:00
6:20 PM,73.4,55.4,53,29.83,5.6,WSW,3.5,-,N/A,,Mostly Cloudy,250,2012-10-28 16:20:00
6:50 PM,71.6,59.0,64,29.83,6.2,Variable,2.3,-,N/A,,Mostly Cloudy,0,2012-10-28 16:50:00
7:20 PM,73.4,57.2,57,29.83,6.2,SSW,8.1,-,N/A,,Mostly Cloudy,200,2012-10-28 17:20:00
7:50 PM,73.4,55.4,53,29.83,6.2,SSW,6.9,-,N/A,,Mostly Cloudy,210,2012-10-28 17:50:00
8:00 PM,74,56,43,29.84,6,SSW,6.9,,,,Partly Cloudy,210,2012-10-28 18:00:00
8:20 PM,73.4,57.2,57,29.83,6.2,SSW,4.6,-,N/A,,Mostly Cloudy,200,2012-10-28 18:20:00
8:50 PM,73.4,57.2,57,29.83,6.2,South,3.5,-,N/A,,Mostly Cloudy,190,2012-10-28 18:50:00
9:20 PM,73.4,57.2,57,29.83,6.2,Variable,2.3,-,N/A,,Mostly Cloudy,0,2012-10-28 19:20:00
9:50 PM,71.6,59.0,64,29.83,6.2,South,4.6,-,N/A,,Mostly Cloudy,190,2012-10-28 19:50:00
10:20 PM,71.6,59.0,64,29.83,6.2,South,4.6,-,N/A,,Mostly Cloudy,190,2012-10-28 20:20:00
10:50 PM,71.6,59.0,64,29.83,6.2,WSW,5.8,-,N/A,,Mostly Cloudy,250,2012-10-28 20:50:00